Tracking 32460 objects as of 12-Dec-2025
HD Live streaming from Space Station
objects crossing your sky now

MIDAS 3

Track MIDAS 3 now!
10-day predictions
MIDAS 3 is classified as:


NORAD ID: 163
Int'l Code: 1961-018A
Perigee: 3,352.1 km
Apogee: 3,550.4 km
Inclination: 91.1 °
Period: 161.5 minutes
Semi major axis: 9822 km
RCS: 10.0428 m2 (large)
Launch date: July 12, 1961
Source: United States (US)
Launch site: AIR FORCE WESTERN TEST RANGE (AFWTR)
Your satellite tracking list
Your tracking list is empty




NASA's NSSDC Master Catalog

Two Line Element Set (TLE):
1 00163U 61018A   25345.99189034  .00000001  00000-0  10058-3 0  9996
2 00163  91.1049 197.1817 0100992   0.8960 359.2079  8.91838719 97324
Source of the keplerian elements: AFSPC